Weather History for Hagerstown, MD

Change the Weather History Date:

Wednesday, August 6, 2014

  Actual Average Record
Temperature  
Mean Temperature 72 °F -  
Max Temperature 81 °F 82 °F 93 °F (2001)
Min Temperature 62 °F 63 °F 51 °F (1997)
Cooling Degree Days 7    
Month to date cooling degree days 43  
Year to date cooling degree days 655  
Since 1 June cooling degree days 573  
Growing Degree Days 21 (Base 50)    
Moisture  
Dew Point 63 °F    
Average Humidity 77    
Maximum Humidity 100    
Minimum Humidity 54    
Precipitation  
Precipitation T in - - ()
Month to date precipitation 0.36  
Year to date precipitation 23.76  
Sea Level Pressure  
Sea Level Pressure 29.98 in    
Wind  
Wind Speed 3 mph (North)    
Max Wind Speed 10 mph    
Max Gust Speed 17 mph    
Visibility 4 miles    
Events Fog    
Averages and records for this station are not official NWS values.
T = Trace of Precipitation, MM = Missing Value Source: NWS Daily Summary

Daily Weather History Graph

Daily Weather History Graph

Search for Another Location

Airport:

Trip Planner

Search our weather history database for the weather conditions in past years. The results will help you decide how hot, cold, wet, or windy it might be!

Date:

Astronomy

Aug. 06, 2014 Rise Set
Actual Time 6:14 AM EDT 8:18 PM EDT
Civil Twilight 5:44 AM EDT 8:47 PM EDT
Nautical Twilight 5:08 AM EDT 9:24 PM EDT
Astronomical Twilight 4:29 AM EDT 10:03 PM EDT
Moon 4:33 PM EDT (8/6) 1:48 AM EDT (8/6)
Length of Visible Light 15h 03m
Length of Day
14h 03m
Waxing Gibbous, 77% of the Moon is Illuminated
Aug 6
Waxing Gibbous
Aug 10
Full
Aug 17
Last Quarter
Aug 25
New
Sep 2
First Quarter

Hourly Weather History & Observations

Time (EDT) Temp. Heat Index Dew Point Humidity Pressure Visibility Wind Dir Wind Speed Gust Speed Precip Events Conditions
12:53 AM 66.9 °F - 64.9 °F 93% 30.00 in 5.0 mi NNW 4.6 mph - N/A   Clear
1:53 AM 66.0 °F - 64.0 °F 93% 30.00 in 5.0 mi WNW 3.5 mph - N/A   Clear
2:53 AM 66.0 °F - 64.0 °F 93% 29.99 in 3.0 mi Calm Calm - N/A   Clear
3:15 AM 64.9 °F - 64.0 °F 97% 29.98 in 2.5 mi Calm Calm - N/A   Clear
3:27 AM 66.0 °F - 64.0 °F 93% 29.97 in 3.0 mi Calm Calm - N/A   Clear
3:34 AM 64.0 °F - 63.0 °F 96% 29.97 in 1.8 mi East 3.5 mph - N/A   Partly Cloudy
3:49 AM 62.6 °F - 62.6 °F 100% 29.97 in 0.2 mi Calm Calm - N/A Fog Fog
3:53 AM 62.1 °F - 61.0 °F 96% 29.99 in 0.2 mi Calm Calm - N/A Fog Fog
4:09 AM 63.0 °F - 62.1 °F 97% 29.97 in 0.5 mi Calm Calm - N/A Fog Fog
4:17 AM 63.0 °F - 62.1 °F 97% 29.97 in 1.2 mi Calm Calm - N/A   Scattered Clouds
4:20 AM 63.0 °F - 62.1 °F 97% 29.97 in 3.0 mi Calm Calm - N/A   Scattered Clouds
4:34 AM 62.1 °F - 61.0 °F 96% 29.97 in 1.8 mi East 3.5 mph - N/A   Partly Cloudy
4:53 AM 62.1 °F - 61.0 °F 96% 29.98 in 0.8 mi East 3.5 mph - N/A   Mist
5:12 AM 62.1 °F - 61.0 °F 96% 29.96 in 0.2 mi East 3.5 mph - N/A Fog Fog
5:48 AM 62.6 °F - 60.8 °F 94% 29.97 in 0.5 mi Calm Calm - N/A Fog Fog
5:53 AM 62.1 °F - 61.0 °F 96% 29.99 in 0.5 mi Calm Calm - N/A Fog Fog
6:01 AM 62.1 °F - 61.0 °F 96% 29.97 in 0.2 mi Calm Calm - N/A Fog Fog
6:53 AM 63.0 °F - 62.1 °F 97% 29.99 in 0.2 mi SSE 3.5 mph - N/A Fog Fog
7:50 AM 64.4 °F - 64.4 °F 100% 29.98 in 1.0 mi Calm Calm - N/A   Mist
7:53 AM 64.0 °F - 64.0 °F 100% 29.99 in 1.5 mi Calm Calm - N/A   Overcast
8:04 AM 64.9 °F - 64.0 °F 97% 29.98 in 2.5 mi Calm Calm - N/A   Mostly Cloudy
8:21 AM 64.9 °F - 64.0 °F 97% 29.98 in 3.0 mi Calm Calm - N/A   Mostly Cloudy
8:35 AM 64.9 °F - 64.0 °F 97% 29.98 in 4.0 mi Calm Calm - N/A   Mostly Cloudy
8:40 AM 64.9 °F - 63.0 °F 93% 29.99 in 2.5 mi WNW 3.5 mph - N/A   Overcast
8:53 AM 64.9 °F - 64.0 °F 97% 30.00 in 2.5 mi WNW 3.5 mph - N/A   Mostly Cloudy
9:00 AM 64.9 °F - 64.0 °F 97% 29.99 in 4.0 mi Calm Calm - N/A   Mostly Cloudy
9:18 AM 66.9 °F - 64.0 °F 90% 29.98 in 2.5 mi Calm Calm - N/A   Mostly Cloudy
9:32 AM 66.9 °F - 64.0 °F 90% 29.98 in 3.0 mi Calm Calm - N/A   Mostly Cloudy
9:53 AM 69.1 °F - 64.0 °F 84% 30.00 in 3.0 mi Calm Calm - N/A   Haze
10:53 AM 70.0 °F - 64.0 °F 81% 30.01 in 7.0 mi West 3.5 mph - N/A   Overcast
11:53 AM 72.0 °F - 63.0 °F 73% 30.01 in 9.0 mi NW 4.6 mph - N/A   Scattered Clouds
1:25 PM 75.9 °F - 63.0 °F 64% 29.97 in 10.0 mi NNW 9.2 mph - N/A   Mostly Cloudy
1:34 PM 75.9 °F - 64.0 °F 67% 29.97 in 9.0 mi Variable 5.8 mph - N/A   Mostly Cloudy
1:53 PM 77.0 °F - 64.0 °F 64% 29.98 in 9.0 mi Calm Calm - N/A   Partly Cloudy
3:53 PM 80.1 °F 81.5 °F 63.0 °F 56% 29.94 in 9.0 mi NNE 9.2 mph - N/A   Partly Cloudy
4:53 PM 79.0 °F - 62.1 °F 56% 29.95 in 10.0 mi Calm Calm - N/A   Mostly Cloudy
5:53 PM 78.1 °F - 62.1 °F 58% 29.95 in 10.0 mi ENE 4.6 mph - N/A   Overcast
6:53 PM 78.1 °F - 60.1 °F 54% 29.95 in 10.0 mi Calm Calm - N/A   Partly Cloudy
7:53 PM 77.0 °F - 61.0 °F 58% 29.95 in 10.0 mi West 5.8 mph - N/A   Clear
8:53 PM 73.0 °F - 64.0 °F 73% 29.96 in 9.0 mi Calm Calm - N/A   Clear
9:53 PM 72.0 °F - 64.9 °F 78% 29.97 in 8.0 mi SW 3.5 mph - N/A   Clear
10:53 PM 70.0 °F - 64.9 °F 84% 29.98 in 7.0 mi SE 4.6 mph - N/A   Partly Cloudy
11:53 PM 71.1 °F - 64.9 °F 81% 29.99 in 7.0 mi South 3.5 mph - N/A   Scattered Clouds